User: anonymous   Login
Location: Caltech
(34.1382°N, 118.1253°W)
Time: 13:57:20
(UTC-07:00)
Language:

Cosmos-2242 - Orbit

View from above orbital plane
View from above orbital plane
View from above satellite
View from above satellite

Ground track
Ground track

The orbit data is extracted from the following two-line orbital elements,

1 22626U 93024A   15116.06634852  .00001874  00000-0  20662-3 0  9993
2 22626 082.5234 059.7411 0018809 194.4971 165.5709 14.86882399189742
Epoch (UTC): 26 April 2015 01:35:32
Eccentricity: 0.0018809
inclination: 82.5234°
perigee height: 594 km
apogee height: 621 km
right ascension of ascending node: 59.7411°
argument of perigee: 194.4971°
revolutions per day: 14.86882399
mean anomaly at epoch: 165.5709°
orbit number at epoch: 18974

The dashed part of the orbit path shows where the satellite is in the earth's shadow,  

DLR